Hourly Data Report for September 09, 2017

All times are specified in Local Standard Time (LST). Add 1 hour to adjust for Daylight Saving Time where and when it is observed.

SUMMERSIDE
PRINCE EDWARD ISLAND

46°26'28.000" N
63°50'17.000" W
12.20 m
8300596
71702
WSD

Download Data

Hourly Data (September 2017)
Hourly Data Report for September 9, 2017
Temp Definition
°C
Dew Point Temp Definition
°C
Rel Hum Definition
%
Wind Dir Definition
10's deg

Wind Spd Definition
km/h
Visibility Definition
km
Stn Press Definition
kPa
Hmdx Definition


Wind Chill Definition


Weather Definition


TIME
00:00 13.5 12.0 91 20 7   101.72     LegendNANA
01:00 12.5 11.4 93 21 9   101.70     LegendNANA
02:00 12.9 11.8 93 19 10   101.71     LegendNANA
03:00 12.6 11.4 92 19 10   101.74     LegendNANA
04:00 11.5 10.8 95 25 3   101.75     LegendNANA
05:00 12.0 11.2 95 20 3   101.77     LegendNANA
06:00 10.3 9.4 94 25 5   101.82     LegendNANA
07:00 12.9 12.1 94 25 4   101.90     LegendNANA
08:00 15.6 13.5 87 28 4   101.93     LegendNANA
09:00 17.6 13.5 77 25 3   101.94     LegendNANA
10:00 18.9 13.1 69 23 6   101.96     LegendNANA
11:00 19.6 12.8 65 24 11   101.97     LegendNANA
12:00 18.8 14.9 78 5 18   101.97     LegendNANA
13:00 19.1 15.7 81 3 19   101.97     LegendNANA
14:00 17.8 15.6 87 35 12   101.98     LegendNANA
15:00 17.9 15.0 83 2 24   101.99     LegendNANA
16:00 17.6 14.9 84 3 24   102.00     LegendNANA
17:00 17.1 14.9 87 3 22   102.01     LegendNANA
18:00 16.1 14.2 89 2 21   102.03     LegendNANA
19:00 15.6 14.0 90 3 19   102.05     LegendNANA
20:00 14.9 13.4 91 2 18   102.10     LegendNANA
21:00 15.4 13.9 91 2 19   102.11     LegendNANA
22:00 15.6 14.0 91 2 22   102.14     LegendNANA
23:00 15.6 13.6 88 3 21   102.14     LegendNANA

Notes on Data Quality.

Legend

  • E = Estimated
  • M = Missing
  • NA = Not Available
  • ‡ = Partner data that is not subject to review by the National Climate Archives
Date modified: